Frederick, OK

11:02 AM CST on February 06, 2016 (GMT -0600)
Frederick Municipal

Weather History for KFDR - February, 2013

Change the Weather History Date:

Monday, February 4, 2013

  Actual Average Record
Temperature  
Mean Temperature 58 °F -  
Max Temperature 70 °F - - ()
Min Temperature 45 °F - - ()
Degree Days  
Heating Degree Days 7    
Growing Degree Days 8 (Base 50)    
Moisture  
Dew Point 34 °F    
Average Humidity 45    
Maximum Humidity 64    
Minimum Humidity 20    
Precipitation  
Precipitation 0.00 in - - ()
Sea Level Pressure  
Sea Level Pressure 29.82 in    
Wind  
Wind Speed 11 mph (NE)    
Max Wind Speed 18 mph    
Max Gust Speed 26 mph    
Visibility 10 miles    
Events      
T = Trace of Precipitation, MM = Missing Value Source: NWS Daily Summary

Daily Weather History Graph

Daily Weather History Graph

Search for Another Location

Airport or City:

Trip Planner

Search our weather history database for the weather conditions in past years. The results will help you decide how hot, cold, wet, or windy it might be!

Date:

Astronomy

Feb. 04, 2013 Rise Set
Actual Time 7:31 AM CST 6:09 PM CST
Civil Twilight 7:04 AM CST 6:35 PM CST
Nautical Twilight 6:34 AM CST 7:05 PM CST
Astronomical Twilight 6:05 AM CST 7:34 PM CST
Moon 2:05 AM CST (2/4) 12:37 PM CST (2/4)
Length of Visible Light 11h 30m
Length of Day
10h 38m
Last Quarter, 37% of the Moon is Illuminated
Feb 4
Last Quarter
Feb 10
New
Feb 17
First Quarter
Feb 25
Full
Mar 4
Last Quarter

Hourly Weather History & Observations

Time (CST) Temp. Windchill Dew Point Humidity Pressure Visibility Wind Dir Wind Speed Gust Speed Precip Events Conditions
12:53 AM 57.0 °F - 25.0 °F 29% 29.83 in 10.0 mi South 16.1 mph - N/A   Clear
1:53 AM 57.0 °F - 28.9 °F 34% 29.79 in 10.0 mi South 17.3 mph - N/A   Clear
2:53 AM 55.9 °F - 32.0 °F 40% 29.78 in 10.0 mi SSW 11.5 mph - N/A   Partly Cloudy
4:53 AM 55.0 °F - 37.9 °F 53% 29.77 in 10.0 mi South 5.8 mph - N/A   Partly Cloudy
5:53 AM 54.0 °F - 39.0 °F 57% 29.76 in 10.0 mi South 8.1 mph - N/A   Clear
6:53 AM 54.0 °F - 41.0 °F 62% 29.76 in 10.0 mi South 6.9 mph - N/A   Clear
7:53 AM 53.1 °F - 41.0 °F 64% 29.78 in 10.0 mi South 5.8 mph - N/A   Clear
8:53 AM 54.0 °F - 42.1 °F 64% 29.80 in 10.0 mi SE 4.6 mph - N/A   Clear
9:53 AM 57.0 °F - 44.1 °F 62% 29.81 in 10.0 mi SE 3.5 mph - N/A   Clear
10:53 AM 60.1 °F - 46.0 °F 60% 29.82 in 10.0 mi Calm Calm - N/A   Clear
11:53 AM 64.0 °F - 46.0 °F 52% 29.82 in 10.0 mi North 12.7 mph - N/A   Clear
12:53 PM 66.9 °F - 44.1 °F 44% 29.80 in 10.0 mi North 10.4 mph - N/A   Clear
1:53 PM 70.0 °F - 39.9 °F 33% 29.78 in 10.0 mi North 18.4 mph 26.5 mph N/A   Clear
2:53 PM 70.0 °F - 34.0 °F 27% 29.78 in 10.0 mi NNE 15.0 mph - N/A   Clear
3:53 PM 70.0 °F - 27.0 °F 20% 29.78 in 10.0 mi NNE 16.1 mph 21.9 mph N/A   Clear
4:53 PM 68.0 °F - 25.0 °F 20% 29.79 in 10.0 mi North 16.1 mph - N/A   Clear
6:53 PM 52.0 °F - 27.0 °F 38% 29.85 in 10.0 mi North 10.4 mph - N/A   Clear
7:53 PM 50.0 °F - 28.0 °F 43% 29.88 in 10.0 mi North 10.4 mph - N/A   Clear
8:53 PM 46.9 °F - 28.0 °F 48% 29.89 in 10.0 mi North 11.5 mph - N/A   Clear
9:53 PM 46.0 °F 40.6 °F 27.0 °F 47% 29.91 in 10.0 mi North 11.5 mph - N/A   Clear
10:53 PM 46.0 °F 40.6 °F 27.0 °F 47% 29.91 in 10.0 mi North 11.5 mph - N/A   Clear
11:53 PM 45.0 °F 40.1 °F 27.0 °F 49% 29.90 in 10.0 mi North 9.2 mph - N/A   Clear